Location: Herksen
(52.4316°N, 6.1319°E)
Time: 08:29:49
(UTC+00:00)

Cosmos 2098 Rocket - Pass Details

Date: 15 May 2026
Orbit: 346 x 838 km, 82.9° (Epoch: 6 June)

Event Time Altitude Azimuth Distance (km) Brightness Sun altitude
Exits shadow 20:51:45 10° 171° (S) 2,087 5.2 -10.5°
Maximum altitude 20:56:14 52° 95° (E) 759 3.3 -11.0°
Drops below altitude 10° 21:00:10 10° 19° (NNE) 1,826 6.0 -11.3°
Sets 21:02:11 0° 15° (NNE) 2,642 6.9 -11.5°
